Location: Hac?musa Deresi
(39.1694°N, 32.2508°E)
Time: 23:11:39
(UTC+00:00)

NOSS 3-1 (A) - Pass Details

Date: 22 April 2026
Orbit: 613 x 1593 km, 63.4° (Epoch: 10 January)

Event Time Altitude Azimuth Distance (km) Brightness Sun altitude
Rises 20:23:47 0° 324° (NW) 3,911 7.7 -34.7°
Reaches altitude 10° 20:26:14 10° 323° (NW) 3,078 6.9 -34.9°
Enters shadow 20:33:20 74° 272° (W) 1,400 4.1 -35.4°
